Location: Baia Mare
(47.6567°N, 23.5850°E)
Time: 16:59:17
(UTC+03:00)

ISS - Pass Details

Date: 15 July 2018
Orbit: 402 x 408 km, 51.6° (Epoch: 23 July)

Event Time Altitude Azimuth Distance (km) Brightness Sun altitude
Exits shadow 02:49:35 22° 280° (W) 951 -2.1 -18.6°
Maximum altitude 02:51:26 49° 347° (NNW) 536 -2.9 -18.5°
Drops below altitude 10° 02:54:39 10° 64° (ENE) 1,473 -0.4 -18.3°
Sets 02:56:47 0° 70° (ENE) 2,336 0.6 -18.2°
